Ketchikan, AK

9:55 AM AKST on November 13, 2018 (GMT -0900)
Ketchikan International

Weather History for PAKT - September, 2017

Change the Weather History Date:

Tuesday, September 26, 2017

  Actual Average Record
Temperature  
Mean Temperature 55 °F -  
Max Temperature 57 °F 57 °F 67 °F (1954)
Min Temperature 53 °F 44 °F 29 °F (1972)
Degree Days  
Heating Degree Days 10    
Growing Degree Days 5 (Base 50)    
Moisture  
Dew Point 55 °F    
Average Humidity 97    
Maximum Humidity 100    
Minimum Humidity 93    
Precipitation  
Precipitation 0.37 in - - ()
Sea Level Pressure  
Sea Level Pressure 30.00 in    
Wind  
Wind Speed 14 mph (SE)    
Max Wind Speed 22 mph    
Max Gust Speed 29 mph    
Visibility 4 miles    
Events Rain    
Averages and records for this station are not official NWS values.
T = Trace of Precipitation, MM = Missing Value Source: NWS Daily Summary

Daily Weather History Graph

Daily Weather History Graph

Search for Another Location

Airport or City:

Astronomy

Sep. 26, 2017 Rise Set
Actual Time 6:40 AM AKDT 6:34 PM AKDT
Civil Twilight 6:04 AM AKDT 7:10 PM AKDT
Nautical Twilight 5:21 AM AKDT 7:53 PM AKDT
Astronomical Twilight 4:36 AM AKDT 8:38 PM AKDT
Moon 1:41 PM AKDT (9/26) 10:01 PM AKDT (9/26)
Length of Visible Light 13h 06m
Length of Day
11h 53m
Waxing Crescent, 38% of the Moon is Illuminated
Sep 26
Waxing Crescent
Sep 27
First Quarter
Oct 5
Full
Oct 12
Last Quarter
Oct 19
New

Hourly Weather History & Observations

Time (AKDT) Temp. Dew Point Humidity Pressure Visibility Wind Dir Wind Speed Gust Speed Precip Events Conditions
12:00 AM 55.0 °F 55.0 °F 100% 29.98 in 3.0 mi SE 9.2 mph - 0.00 in Rain Light Rain
12:09 AM 55.0 °F 55.0 °F 100% 29.98 in 2.5 mi SE 11.5 mph - 0.01 in Rain Light Rain
12:49 AM 55.4 °F 55.4 °F 100% 29.97 in 2.0 mi SSE 6.9 mph - 0.07 in Rain Rain
12:53 AM 55.0 °F 55.0 °F 100% 29.98 in 2.0 mi SSE 6.9 mph - 0.08 in Rain Rain
1:18 AM 55.0 °F 55.0 °F 100% 29.97 in 4.0 mi SE 9.2 mph - 0.04 in Rain Light Rain
1:29 AM 55.0 °F 55.0 °F 100% 29.97 in 2.0 mi SE 13.8 mph - 0.06 in Rain Rain
1:43 AM 55.9 °F 55.0 °F 97% 29.98 in 4.0 mi SE 13.8 mph 23.0 mph 0.07 in Rain Light Rain
1:53 AM 55.0 °F 55.0 °F 100% 29.98 in 5.0 mi SE 16.1 mph 23.0 mph 0.07 in Rain Light Rain
2:53 AM 55.0 °F 54.0 °F 96% 29.98 in 7.0 mi SSE 15.0 mph 24.2 mph 0.06 in Rain Light Rain
3:24 AM 55.0 °F 54.0 °F 96% 29.97 in 3.0 mi SE 17.3 mph 27.6 mph 0.02 in Rain Light Rain
3:29 AM 55.0 °F 54.0 °F 96% 29.97 in 2.5 mi SSE 17.3 mph 27.6 mph 0.02 in Rain Light Rain
3:44 AM 55.0 °F 54.0 °F 96% 29.97 in 1.8 mi SE 19.6 mph - 0.05 in Rain Light Rain
3:51 AM 53.6 °F 53.6 °F 100% 29.98 in 1.8 mi SE 18.4 mph 27.6 mph 0.07 in Rain Rain
3:53 AM 54.0 °F 54.0 °F 100% 29.98 in 1.8 mi SE 21.9 mph 27.6 mph 0.07 in Rain Rain
3:56 AM 54.0 °F 54.0 °F 100% 29.97 in 2.0 mi SE 20.7 mph 27.6 mph 0.01 in Rain Rain
4:11 AM 54.0 °F 54.0 °F 100% 29.97 in 2.0 mi SE 19.6 mph 25.3 mph 0.03 in Rain Light Rain
4:39 AM 54.0 °F 53.1 °F 97% 29.97 in 3.0 mi SE 18.4 mph 27.6 mph 0.06 in Rain Light Rain
4:53 AM 54.0 °F 53.1 °F 97% 29.98 in 4.0 mi SE 17.3 mph 28.8 mph 0.06 in Rain Light Rain
5:53 AM 55.0 °F 54.0 °F 96% 29.98 in 6.0 mi SE 17.3 mph - 0.03 in Rain Light Rain
6:05 AM 55.0 °F 54.0 °F 96% 29.97 in 4.0 mi SE 17.3 mph 26.5 mph 0.00 in Rain Light Rain
6:19 AM 55.0 °F 54.0 °F 96% 29.97 in 2.0 mi SE 17.3 mph - 0.01 in Rain Light Rain
6:53 AM 55.4 °F 53.6 °F 94% 29.98 in 3.0 mi SE 16.1 mph - N/A Rain Light Rain
7:53 AM 55.4 °F 53.6 °F 94% 29.98 in 3.0 mi SE 18.4 mph - N/A Rain Light Rain
8:53 AM 55.4 °F 55.4 °F 100% 29.99 in 3.0 mi SE 18.4 mph - N/A Rain Rain
8:55 AM 55.9 °F 55.0 °F 97% 29.98 in 3.0 mi ESE 17.3 mph - 0.00 in Rain Light Rain
9:53 AM 55.4 °F 55.4 °F 100% 30.00 in 3.0 mi ESE 18.4 mph - N/A Rain Light Rain
10:53 AM 55.4 °F 55.4 °F 100% 30.01 in 2.0 mi SE 16.1 mph - N/A Rain Light Rain
11:18 AM 55.9 °F 55.0 °F 97% 30.00 in 3.0 mi SE 19.6 mph 26.5 mph 0.03 in Rain Rain
11:53 AM 57.2 °F 55.4 °F 94% 30.01 in 3.0 mi SE 19.6 mph 24.2 mph N/A Rain Rain
12:53 PM 57.2 °F 55.4 °F 94% 30.02 in 4.0 mi SE 18.4 mph 28.8 mph N/A Rain Rain
1:53 PM 57.2 °F 55.4 °F 94% 30.04 in 3.0 mi SE 19.6 mph 24.2 mph N/A Rain Rain
2:53 PM 57.2 °F 55.4 °F 94% 30.03 in 7.0 mi SE 17.3 mph 26.5 mph N/A Rain Light Rain
3:53 PM 57.2 °F 55.4 °F 94% 30.04 in 5.0 mi SE 16.1 mph 24.2 mph N/A Rain Light Rain
4:53 PM 57.2 °F 55.4 °F 94% 30.03 in 10.0 mi SE 15.0 mph - N/A   Overcast
5:53 PM 57.2 °F 55.4 °F 94% 30.04 in 10.0 mi SE 15.0 mph 25.3 mph N/A   Overcast
6:53 PM 57.2 °F 55.4 °F 94% 30.05 in 9.0 mi SE 12.7 mph 26.5 mph N/A   Overcast
7:53 PM 57.2 °F 57.2 °F 100% 30.06 in 10.0 mi SE 16.1 mph 26.5 mph N/A Rain Light Rain
8:53 PM 57.2 °F 55.4 °F 94% 30.07 in 10.0 mi SE 17.3 mph 25.3 mph N/A   Overcast
9:53 PM 57.9 °F 55.9 °F 93% 30.07 in 10.0 mi SSE 12.7 mph 24.2 mph 0.00 in   Overcast
10:53 PM 57.0 °F 55.9 °F 96% 30.08 in 10.0 mi SE 17.3 mph 26.5 mph N/A   Overcast
11:53 PM 57.0 °F 55.9 °F 96% 30.08 in 10.0 mi SE 15.0 mph 24.2 mph N/A   Overcast